This is the latest recevied weather packets stored in our database for station/object N4MGC. If no packets are shown the sender has not sent any weather packets the latest 10 day(s).
| Time | Temp. | Humidity | Pressure | Rain* | Wind** | Luminosity | Snow |
|---|---|---|---|---|---|---|---|
| 1777935942 | 24.44° C | 46% | 1012.4 hPa | 0 mm | - | 39 W/m² | - |
| 1777935641 | 24.44° C | 47% | 1012.5 hPa | 0 mm | - | 41 W/m² | - |
| 1777935338 | 24.44° C | 45% | 1012.6 hPa | 0 mm | - | 42 W/m² | - |
| 1777935035 | 25° C | 45% | 1012.5 hPa | 0 mm | - | 44 W/m² | - |
| 1777934731 | 25° C | 47% | 1012.6 hPa | 0 mm | - | 45 W/m² | - |
| 1777934429 | 25° C | 44% | 1012.6 hPa | 0 mm | - | 46 W/m² | - |
| 1777934125 | 25° C | 44% | 1012.9 hPa | 0 mm | - | 62 W/m² | - |
| 1777933821 | 25.56° C | 43% | 1012.7 hPa | 0 mm | - | 62 W/m² | - |
| 1777933518 | 25.56° C | 44% | 1012.9 hPa | 0 mm | - | 249 W/m² | - |
| 1777933216 | 26.11° C | 41% | 1012.9 hPa | 0 mm | - | 294 W/m² | - |
| 1777932913 | 26.11° C | 41% | 1012.8 hPa | 0 mm | - | 305 W/m² | - |
| 1777932610 | 26.11° C | 43% | 1013 hPa | 0 mm | - | 304 W/m² | - |
| 1777932306 | 25.56° C | 42% | 1013.1 hPa | 0 mm | - | 334 W/m² | - |
| 1777932003 | 25.56° C | 42% | 1013 hPa | 0 mm | - | 351 W/m² | - |
| 1777931700 | 26.11° C | 40% | 1012.9 hPa | 0 mm | - | 343 W/m² | - |
| 1777931396 | 26.67° C | 40% | 1012.9 hPa | 0 mm | - | 393 W/m² | - |
| 1777931093 | 26.11° C | 41% | 1012.9 hPa | 0 mm | - | 378 W/m² | - |
| 1777930789 | 26.67° C | 42% | 1013.1 hPa | 0 mm | - | 382 W/m² | - |
| 1777930485 | 26.67° C | 42% | 1012.9 hPa | 0 mm | - | 402 W/m² | - |
| 1777930183 | 26.11° C | 42% | 1013 hPa | 0 mm | - | 418 W/m² | - |
| 1777929878 | 26.67° C | 43% | 1013.2 hPa | 0 mm | - | 379 W/m² | - |
| 1777929577 | 26.67° C | 42% | 1013.1 hPa | 0 mm | - | 430 W/m² | - |
| 1777929273 | 26.67° C | 41% | 1013.3 hPa | 0 mm | - | 439 W/m² | - |
| 1777928971 | 26.67° C | 40% | 1013.4 hPa | 0 mm | - | 497 W/m² | - |
| 1777928667 | 26.11° C | 41% | 1013.5 hPa | 0 mm | - | 497 W/m² | - |
* Rain latest hour (hover to see other rain measurements)
** Current wind speed in m/s (hover to see current wind gust speed)